AKST,Max TemperatureF,Mean TemperatureF,Min TemperatureF,Max Dew PointF,MeanDew PointF,Min DewpointF,Max Humidity, Mean Humidity, Min Humidity, Max Sea Level PressureIn, Mean Sea Level PressureIn, Min Sea Level PressureIn, Max VisibilityMiles, Mean VisibilityMiles, Min VisibilityMiles, Max Wind SpeedMPH, Mean Wind SpeedMPH, Max Gust SpeedMPH,PrecipitationIn, CloudCover, Events, WindDirDegrees
2012-12-1,0,-19,-38,-18,-26,-33,86,76,61,29.91,29.79,29.48,10,10,10,8,1,,0.00,1,,221
2012-12-2,-14,-24,-34,-23,-28,-36,82,75,60,29.73,29.67,29.40,10,10,10,6,0,,0.00,0,,138
2012-12-3,-16,-27,-38,-26,-30,-34,81,73,60,29.99,29.90,29.66,10,10,10,5,1,,0.00,1,,329
2012-12-4,-23,-32,-41,-30,-33,-34,74,68,58,29.94,29.88,29.58,10,10,8,6,1,,0.00,1,Fog,340
2012-12-5,-27,-35,-43,-35,-35,-36,69,65,53,30.06,30.00,29.72,10,10,9,0,0,,0.00,2,Fog,-1
2012-12-6,-20,-32,-44,-30,-31,-33,74,68,58,30.23,30.13,29.91,10,10,10,4,1,,0.00,2,,337
2012-12-7,-24,-31,-38,-31,-33,-37,73,67,58,30.41,30.31,29.97,10,10,10,4,1,,0.00,0,,300
2012-12-8,-13,-26,-40,-17,-23,-34,84,78,64,30.43,30.00,29.45,10,7,1,5,0,,0.20,6,Snow,134
2012-12-9,1,-12,-26,0,-7,-17,92,83,67,29.73,29.64,29.41,10,8,1,5,1,,0.00,8,Snow,150
2012-12-10,12,2,-8,10,4,-2,92,87,75,29.76,29.65,29.51,10,8,2,5,1,,0.00,8,Snow,339
2012-12-11,12,2,-6,9,3,-9,92,86,80,29.98,29.86,29.63,10,10,10,6,2,,0.00,7,,357
2012-12-12,28,17,6,28,20,5,100,88,55,29.71,29.27,29.08,10,7,1,20,8,26,0.01,7,Snow,174
2012-12-13,21,10,0,11,4,-3,92,87,81,29.43,29.31,29.14,10,10,7,7,2,,0.00,7,Snow,327
2012-12-14,10,2,-6,7,-1,-9,92,87,80,29.40,29.26,29.03,10,10,5,6,3,,0.00,6,Snow,328
2012-12-15,12,4,-4,7,4,-2,92,80,62,29.29,29.12,28.94,10,8,2,14,9,24,0.02,8,Snow,333
2012-12-16,9,-6,-24,1,-11,-28,82,68,47,29.81,29.55,29.26,10,10,8,13,9,,0.00,4,,331
2012-12-17,-11,-24,-38,-28,-33,-35,82,72,53,30.06,29.96,29.68,10,10,10,8,2,,0.00,0,,344
2012-12-18,-26,-34,-43,-32,-33,-35,77,72,58,29.98,29.86,29.54,10,10,3,6,2,,0.00,3,Fog,332
2012-12-19,-22,-32,-42,-30,-33,-35,81,72,53,30.19,29.97,29.59,10,10,10,5,1,,0.00,0,,5
2012-12-20,-4,-22,-40,-13,-24,-32,82,74,50,30.46,30.36,30.11,10,10,10,9,2,,0.00,0,,333
2012-12-21,-6,-22,-40,-17,-28,-35,86,75,68,30.50,30.43,30.08,10,10,8,7,2,,0.00,0,,13
2012-12-22,-23,-33,-43,-33,-34,-34,77,73,64,30.37,30.27,29.92,10,10,10,6,2,,0.00,4,,331
2012-12-23,-26,-34,-43,-34,-35,-36,73,67,58,30.22,30.15,29.82,10,10,9,4,1,,0.00,1,,320
2012-12-24,-18,-29,-40,-24,-28,-35,82,74,64,30.15,30.08,29.80,10,10,10,4,1,,0.00,5,,342
2012-12-25,-4,-16,-27,-9,-14,-22,83,77,61,30.03,29.94,29.71,10,10,10,4,0,,0.00,7,,90
2012-12-26,-2,-9,-16,-8,-13,-20,83,78,66,29.92,29.83,29.55,10,10,10,4,0,,0.00,4,,307
2012-12-27,5,-3,-11,1,-4,-9,84,78,69,29.73,29.65,29.49,10,10,9,5,1,,0.00,7,Snow,348
2012-12-28,6,-2,-9,2,-7,-14,87,81,69,29.91,29.82,29.58,10,10,10,5,1,,0.00,3,,324
2012-12-29,36,15,-6,30,19,-3,92,84,75,29.86,29.65,29.47,10,10,10,21,9,29,0.00,3,,139
2012-12-30,37,28,19,30,23,14,85,76,63,29.53,29.40,29.30,10,10,10,23,10,29,0.00,4,,94
2012-12-31,33,26,18,25,22,17,81,72,55,29.93,29.80,29.57,10,10,10,21,15,24,0.00,3,,153